Weather History for KFWZ - April, 2014

Change the Weather History Date:

Thursday, April 10, 2014

  Actual Average (KLND) Record (KLND)
Temperature  
Mean Temperature 40 °F 42 °F  
Max Temperature 46 °F 55 °F 73 °F (2012)
Min Temperature 35 °F 30 °F 5 °F (2013)
Degree Days  
Heating Degree Days 24 23  
Month to date heating degree days 239  
Since 1 July heating degree days 6858  
Cooling Degree Days 0 0  
Month to date cooling degree days 0  
Year to date cooling degree days 0  
Moisture  
Dew Point 18 °F    
Average Humidity 41    
Maximum Humidity 87    
Minimum Humidity 25    
Precipitation  
Precipitation 0.00 in 0.06 in 1.42 in (1943)
Month to date precipitation 0.53  
Year to date precipitation 2.68  
Snow  
Snow 0.00 in 0.60 in - ()
Month to date snowfall 5.9  
Since 1 July snowfall 75.6  
Snow Depth -    
Sea Level Pressure  
Sea Level Pressure 30.00 in    
Wind  
Wind Speed 12 mph (West)    
Max Wind Speed 24 mph    
Max Gust Speed 39 mph    
Visibility 10 miles    
Events Snow    
T = Trace of Precipitation, MM = Missing Value Source: NWS Daily Summary

Daily Weather History Graph

Daily Weather History Graph

Search for Another Location

Airport or City:

Trip Planner

Search our weather history database for the weather conditions in past years. The results will help you decide how hot, cold, wet, or windy it might be!

Date:

Astronomy

Apr. 10, 2014 Rise Set
Actual Time 6:42 AM MDT 7:51 PM MDT
Civil Twilight 6:13 AM MDT 8:20 PM MDT
Nautical Twilight 5:38 AM MDT 8:55 PM MDT
Astronomical Twilight 5:02 AM MDT 9:31 PM MDT
Moon 3:33 PM MDT (4/10) 4:12 AM MDT (4/10)
Length of Visible Light 14h 07m
Length of Day
13h 09m
Waxing Gibbous, 80% of the Moon is Illuminated
Apr 10
Waxing Gibbous
Apr 15
Full
Apr 22
Last Quarter
Apr 29
New
May 6
First Quarter

Hourly Weather History & Observations

Time (MDT) Temp. Windchill Dew Point Humidity Pressure Visibility Wind Dir Wind Speed Gust Speed Precip Events Conditions
12:15 AM 41.0 °F 33.5 °F 24.8 °F 53% 29.98 in 10.0 mi West 13.8 mph 25.3 mph N/A   Scattered Clouds
12:35 AM 41.0 °F 34.3 °F 24.8 °F 53% 29.99 in 10.0 mi West 11.5 mph 20.7 mph N/A   Clear
12:55 AM 41.0 °F 34.7 °F 26.6 °F 57% 30.00 in 10.0 mi West 10.4 mph - N/A   Clear
1:15 AM 41.0 °F 35.2 °F 26.6 °F 57% 30.00 in 10.0 mi West 9.2 mph - N/A   Clear
1:35 AM 41.0 °F 34.3 °F 26.6 °F 57% 30.00 in 10.0 mi WNW 11.5 mph 17.3 mph N/A   Mostly Cloudy
1:55 AM 41.0 °F 33.5 °F 26.6 °F 57% 30.00 in 10.0 mi West 13.8 mph 18.4 mph N/A   Overcast
2:15 AM 35.6 °F 27.5 °F 32.0 °F 87% 30.00 in 4.0 mi West 11.5 mph - N/A Snow Light Snow
2:35 AM 35.6 °F 27.5 °F 30.2 °F 81% 29.98 in 10.0 mi WSW 11.5 mph - N/A   Overcast
2:55 AM 37.4 °F 30.8 °F 28.4 °F 70% 29.96 in 10.0 mi WSW 9.2 mph - N/A   Scattered Clouds
3:15 AM 37.4 °F 31.4 °F 28.4 °F 70% 29.96 in 10.0 mi West 8.1 mph - N/A   Clear
3:35 AM 37.4 °F 28.9 °F 24.8 °F 60% 29.96 in 10.0 mi WNW 13.8 mph 20.7 mph N/A   Clear
3:55 AM 37.4 °F 30.3 °F 23.0 °F 56% 29.98 in 10.0 mi West 10.4 mph 18.4 mph N/A   Clear
4:15 AM 37.4 °F 30.3 °F 23.0 °F 56% 29.96 in 10.0 mi West 10.4 mph - N/A   Clear
4:35 AM 37.4 °F 33.8 °F 19.4 °F 48% 29.97 in 10.0 mi North 4.6 mph - N/A   Clear
4:55 AM 37.4 °F 34.9 °F 14.0 °F 38% 29.97 in 10.0 mi West 3.5 mph - N/A   Clear
5:15 AM 37.4 °F 32.1 °F 15.8 °F 41% 29.97 in 10.0 mi West 6.9 mph - N/A   Clear
5:35 AM 35.6 °F 28.6 °F 15.8 °F 44% 29.96 in 10.0 mi West 9.2 mph - N/A   Clear
5:55 AM 35.6 °F 30.7 °F 15.8 °F 44% 29.96 in 10.0 mi West 5.8 mph - N/A   Clear
6:15 AM 35.6 °F 29.2 °F 14.0 °F 41% 29.96 in 10.0 mi West 8.1 mph - N/A   Clear
6:35 AM 35.6 °F 28.0 °F 14.0 °F 41% 29.96 in 10.0 mi WNW 10.4 mph - N/A   Clear
6:55 AM 35.6 °F 29.2 °F 14.0 °F 41% 29.97 in 10.0 mi West 8.1 mph - N/A   Clear
7:15 AM 35.6 °F 28.6 °F 14.0 °F 41% 29.98 in 10.0 mi West 9.2 mph - N/A   Clear
7:35 AM 35.6 °F 29.2 °F 14.0 °F 41% 29.98 in 10.0 mi West 8.1 mph - N/A   Clear
7:55 AM 37.4 °F 32.8 °F 14.0 °F 38% 29.98 in 10.0 mi WSW 5.8 mph - N/A   Clear
8:15 AM 35.6 °F 29.9 °F 17.6 °F 48% 29.98 in 10.0 mi SW 6.9 mph - N/A   Clear
8:35 AM 35.6 °F 28.0 °F 17.6 °F 48% 29.98 in 10.0 mi WSW 10.4 mph 19.6 mph N/A   Clear
8:55 AM 37.4 °F 30.3 °F 12.2 °F 36% 29.98 in 10.0 mi West 10.4 mph 18.4 mph N/A   Clear
9:15 AM 37.4 °F 31.4 °F 12.2 °F 36% 29.98 in 10.0 mi West 8.1 mph - N/A   Clear
9:35 AM 37.4 °F 30.8 °F 12.2 °F 36% 29.97 in 10.0 mi West 9.2 mph - N/A   Clear
9:55 AM 37.4 °F 30.3 °F 12.2 °F 36% 29.98 in 10.0 mi West 10.4 mph - N/A   Clear
10:15 AM 37.4 °F 30.8 °F 14.0 °F 38% 29.98 in 10.0 mi West 9.2 mph - N/A   Clear
10:35 AM 41.0 °F 34.7 °F 14.0 °F 33% 29.98 in 10.0 mi West 10.4 mph - N/A   Clear
10:55 AM 41.0 °F 33.5 °F 17.6 °F 39% 29.99 in 10.0 mi West 13.8 mph 31.1 mph N/A   Clear
11:15 AM 41.0 °F 32.5 °F 19.4 °F 42% 29.99 in 10.0 mi West 17.3 mph 28.8 mph N/A   Clear
11:35 AM 41.0 °F 32.5 °F 19.4 °F 42% 29.98 in 10.0 mi West 17.3 mph 25.3 mph N/A   Clear
11:55 AM 41.0 °F 31.1 °F 21.2 °F 45% 29.99 in 10.0 mi West 23.0 mph 29.9 mph N/A   Clear
12:15 PM 42.8 °F 35.4 °F 21.2 °F 42% 29.99 in 10.0 mi West 15.0 mph 27.6 mph N/A   Clear
12:35 PM 42.8 °F 34.0 °F 23.0 °F 46% 29.99 in 10.0 mi WSW 20.7 mph 27.6 mph N/A   Clear
12:55 PM 42.8 °F 34.3 °F 23.0 °F 46% 30.00 in 10.0 mi WSW 19.6 mph 31.1 mph N/A   Clear
1:15 PM 44.6 °F 37.2 °F 21.2 °F 39% 30.00 in 10.0 mi West 17.3 mph 27.6 mph N/A   Clear
1:35 PM 44.6 °F 36.4 °F 19.4 °F 37% 29.98 in 10.0 mi WSW 20.7 mph 34.5 mph N/A   Clear
1:55 PM 44.6 °F 35.7 °F 21.2 °F 39% 29.98 in 10.0 mi WSW 24.2 mph 33.4 mph N/A   Clear
2:15 PM 44.6 °F 36.4 °F 21.2 °F 39% 29.98 in 10.0 mi West 20.7 mph 32.2 mph N/A   Clear
2:35 PM 44.6 °F 36.4 °F 19.4 °F 37% 30.00 in 10.0 mi West 20.7 mph 29.9 mph N/A   Scattered Clouds
2:55 PM 46.4 °F 38.1 °F 19.4 °F 34% 29.98 in 10.0 mi WSW 24.2 mph 31.1 mph N/A   Scattered Clouds
3:15 PM 44.6 °F 36.1 °F 19.4 °F 37% 29.98 in 10.0 mi WSW 21.9 mph 39.1 mph N/A   Clear
3:35 PM 46.4 °F 39.2 °F 19.4 °F 34% 29.98 in 10.0 mi WSW 18.4 mph 33.4 mph N/A   Clear
3:55 PM 46.4 °F 39.5 °F 17.6 °F 32% 29.98 in 10.0 mi West 17.3 mph 33.4 mph N/A   Clear
4:15 PM 46.4 °F 39.8 °F 17.6 °F 32% 29.99 in 10.0 mi West 16.1 mph 26.5 mph N/A   Clear
4:35 PM 46.4 °F 39.8 °F 12.2 °F 25% 30.00 in 10.0 mi West 16.1 mph 27.6 mph N/A   Clear
4:55 PM 46.4 °F 40.7 °F 15.8 °F 29% 30.00 in 10.0 mi West 12.7 mph 28.8 mph N/A   Clear
5:15 PM 46.4 °F 40.7 °F 15.8 °F 29% 30.00 in 10.0 mi West 12.7 mph 20.7 mph N/A   Clear
5:35 PM 46.4 °F 42.4 °F 15.8 °F 29% 30.01 in 10.0 mi WNW 8.1 mph 23.0 mph N/A   Clear
5:55 PM 46.4 °F 41.1 °F 14.0 °F 27% 30.03 in 10.0 mi WNW 11.5 mph 19.6 mph N/A   Clear
6:15 PM 46.4 °F 41.1 °F 14.0 °F 27% 30.02 in 10.0 mi West 11.5 mph 20.7 mph N/A   Clear
6:35 PM 46.4 °F 41.9 °F 14.0 °F 27% 30.02 in 10.0 mi West 9.2 mph 19.6 mph N/A   Clear
7:15 PM 44.6 °F 38.4 °F 12.2 °F 27% 30.03 in 10.0 mi West 12.7 mph 24.2 mph N/A   Clear
7:35 PM 42.8 °F 37.0 °F 12.2 °F 29% 30.03 in 10.0 mi West 10.4 mph 17.3 mph N/A   Clear
7:55 PM 41.0 °F 33.9 °F 14.0 °F 33% 30.03 in 10.0 mi WSW 12.7 mph 20.7 mph N/A   Clear
8:15 PM 41.0 °F 32.8 °F 12.2 °F 31% 30.03 in 10.0 mi West 16.1 mph 24.2 mph N/A   Clear
8:35 PM 41.0 °F 35.8 °F 12.2 °F 31% 30.03 in 10.0 mi West 8.1 mph - N/A   Clear
8:55 PM 41.0 °F 34.7 °F 10.4 °F 29% 30.03 in 10.0 mi WNW 10.4 mph 19.6 mph N/A   Clear
9:15 PM 39.2 °F 34.2 °F 12.2 °F 33% 30.05 in 10.0 mi NNW 6.9 mph 17.3 mph N/A   Clear
9:35 PM 37.4 °F 33.8 °F 12.2 °F 36% 30.06 in 10.0 mi NNW 4.6 mph - N/A   Clear
9:55 PM 39.2 °F 35.9 °F 10.4 °F 31% 30.06 in 10.0 mi WNW 4.6 mph - N/A   Clear
10:15 PM 39.2 °F 37.0 °F 10.4 °F 31% 30.07 in 10.0 mi ENE 3.5 mph - N/A   Clear
10:35 PM 37.4 °F 34.9 °F 10.4 °F 33% 30.07 in 10.0 mi NNE 3.5 mph - N/A   Clear
11:15 PM 39.2 °F 35.9 °F 12.2 °F 33% 30.07 in 10.0 mi WNW 4.6 mph - N/A   Clear
11:35 PM 41.0 °F 37.1 °F 14.0 °F 33% 30.07 in 10.0 mi WNW 5.8 mph - N/A   Clear
11:55 PM 41.0 °F 37.1 °F 15.8 °F 36% 30.07 in 10.0 mi West 5.8 mph - N/A   Clear